Tracking 29892 objects as of 21-Nov-2024
HD Live streaming from Space Station
objects crossing your sky now

NOAA 16 DEB

Track NOAA 16 DEB now!
10-day predictions


NORAD ID: 41658
Int'l Code: 2000-055NX
Perigee: 715.8 km
Apogee: 744.8 km
Inclination: 98.9 °
Period: 99.3 minutes
Semi major axis: 7101 km
RCS: Unknown
Launch date: September 21, 2000
Source: United States (US)
Launch site: AIR FORCE WESTERN TEST RANGE (AFWTR)

Note: This is SATELLITE DEBRIS
Your satellite tracking list
Your tracking list is empty




NASA's NSSDC Master Catalog

Two Line Element Set (TLE):
1 41658U 00055NX  24323.62696603  .00022067  00000-0  55865-2 0  9994
2 41658  98.8878 101.1180 0020380 334.4543  25.5641 14.50768106 27476
Source of the keplerian elements: AFSPC